Location: Fornova de Taro
(44.7000°N, 10.1000°E)
Time: 01:43:36
(UTC+00:00)

Cosmos 2341 Rocket - Pass Details

Date: 26 May 2022
Orbit: 969 x 1003 km, 82.9° (Epoch: 26 June)

Event Time Altitude Azimuth Distance (km) Brightness Sun altitude
Rises 02:38:23 0° 348° (NNW) 3,734 7.5 -9.7°
Reaches altitude 10° 02:40:57 10° 345° (NNW) 2,783 6.8 -9.4°
Maximum altitude 02:47:13 60° 267° (W) 1,137 4.2 -8.6°
Drops below altitude 10° 02:53:27 10° 189° (S) 2,768 5.9 -7.7°
Sets 02:56:00 0° 186° (S) 3,712 6.6 -7.4°
